Location: Bothwell
(42.3833°S, 147.0000°E)
Time: 22:24:18
(UTC+11:00)

RS-44 - Pass Details

Date: 28 September 2022
Orbit: 1175 x 1510 km, 82.5° (Epoch: 29 November)

Event Time Altitude Azimuth Distance (km) Brightness Sun altitude
Exits shadow 20:35:39 10° 121° (ESE) 3,654 ? -25.6°
Drops below altitude 10° 20:35:48 10° 122° (ESE) 3,665 ? -25.6°
Sets 20:41:58 0° 154° (SSE) 4,682 ? -26.6°
